Tehachapi, CA

2:05 AM PDT on April 25, 2018 (GMT -0700)
Tehachapi Municipal

Weather History for KTSP - March, 2014

Change the Weather History Date:

Tuesday, March 11, 2014

  Actual Average Record
Temperature  
Mean Temperature 48 °F -  
Max Temperature 59 °F 54 °F 71 °F (2017)
Min Temperature 37 °F 35 °F 26 °F (2013)
Degree Days  
Heating Degree Days 17    
Moisture  
Dew Point 29 °F    
Average Humidity 54    
Maximum Humidity 100    
Minimum Humidity 22    
Precipitation  
Precipitation 0.00 in - - ()
Sea Level Pressure  
Sea Level Pressure 30.12 in    
Wind  
Wind Speed 13 mph (SE)    
Max Wind Speed 23 mph    
Max Gust Speed 31 mph    
Visibility 8 miles    
Events Fog    
Averages and records for this station are not official NWS values.
T = Trace of Precipitation, MM = Missing Value Source: NWS Daily Summary

Daily Weather History Graph

Daily Weather History Graph

Search for Another Location

Airport or City:

Astronomy

Mar. 11, 2014 Rise Set
Actual Time 7:09 AM PDT 6:58 PM PDT
Civil Twilight 6:44 AM PDT 7:23 PM PDT
Nautical Twilight 6:15 AM PDT 7:52 PM PDT
Astronomical Twilight 5:45 AM PDT 8:22 PM PDT
Moon 2:46 PM PDT (3/11) 3:58 AM PDT (3/11)
Length of Visible Light 12h 38m
Length of Day
11h 48m
Waxing Gibbous, 79% of the Moon is Illuminated
Mar 11
Waxing Gibbous
Mar 16
Full
Mar 23
Last Quarter
Mar 30
New
Apr 7
First Quarter

Hourly Weather History & Observations

Time (PDT) Temp. Windchill Dew Point Humidity Pressure Visibility Wind Dir Wind Speed Gust Speed Precip Events Conditions
12:15 AM 48.2 °F - 41.0 °F 76% 30.18 in 9.0 mi WNW 13.8 mph 19.6 mph N/A   Overcast
12:35 AM 48.2 °F - 42.8 °F 82% 30.17 in 8.0 mi WNW 17.3 mph - N/A   Scattered Clouds
12:55 AM 46.4 °F 40.4 °F 44.6 °F 93% 30.17 in 8.0 mi WNW 13.8 mph - N/A   Partly Cloudy
1:15 AM 46.4 °F 40.1 °F 44.6 °F 93% 30.17 in 7.0 mi West 15.0 mph 21.9 mph N/A   Mostly Cloudy
1:35 AM 46.4 °F 40.1 °F 44.6 °F 93% 30.17 in 8.0 mi West 15.0 mph 20.7 mph N/A   Mostly Cloudy
1:55 AM 46.4 °F 39.5 °F 44.6 °F 93% 30.17 in 7.0 mi West 17.3 mph 20.7 mph N/A   Overcast
2:15 AM 44.6 °F 37.8 °F 44.6 °F 100% 30.17 in 6.0 mi West 15.0 mph 18.4 mph N/A   Overcast
2:35 AM 44.6 °F 37.8 °F 44.6 °F 100% 30.16 in 7.0 mi West 15.0 mph 20.7 mph N/A   Overcast
2:55 AM 44.6 °F 37.8 °F 44.6 °F 100% 30.16 in 4.0 mi West 15.0 mph - N/A   Overcast
3:15 AM 42.8 °F 36.6 °F 42.8 °F 100% 30.15 in 5.0 mi WNW 11.5 mph - N/A   Overcast
3:35 AM 41.0 °F 35.8 °F 41.0 °F 100% 30.14 in 5.0 mi WNW 8.1 mph - N/A   Mostly Cloudy
3:55 AM 41.0 °F 35.2 °F 41.0 °F 100% 30.13 in 3.0 mi NW 9.2 mph - N/A   Scattered Clouds
4:15 AM 41.0 °F 35.2 °F 41.0 °F 100% 30.13 in 2.0 mi NW 9.2 mph - N/A   Overcast
4:35 AM 41.0 °F 35.8 °F 41.0 °F 100% 30.12 in 2.5 mi NW 8.1 mph - N/A   Overcast
4:55 AM 41.0 °F 38.0 °F 41.0 °F 100% 30.12 in 0.2 mi West 4.6 mph - N/A Fog Fog
5:15 AM 41.0 °F 36.4 °F 41.0 °F 100% 30.12 in 0.2 mi WSW 6.9 mph - N/A Fog Fog
5:35 AM 41.0 °F 39.0 °F 41.0 °F 100% 30.12 in 3.0 mi West 3.5 mph - N/A   Overcast
5:55 AM 41.0 °F 39.0 °F 41.0 °F 100% 30.12 in 5.0 mi WNW 3.5 mph - N/A   Overcast
6:15 AM 41.0 °F - 41.0 °F 100% 30.13 in 5.0 mi Calm Calm - N/A   Overcast
6:35 AM 41.0 °F 39.0 °F 41.0 °F 100% 30.12 in 5.0 mi West 3.5 mph - N/A   Overcast
6:55 AM 41.0 °F - 41.0 °F 100% 30.12 in 5.0 mi Calm Calm - N/A   Mostly Cloudy
7:15 AM 39.2 °F - 39.2 °F 100% 30.12 in 1.2 mi Calm Calm - N/A   Clear
7:35 AM 37.4 °F - 37.4 °F 100% 30.12 in 0.2 mi Calm Calm - N/A Fog Fog
7:55 AM 39.2 °F 34.2 °F 39.2 °F 100% 30.12 in 1.8 mi East 6.9 mph - N/A   Clear
8:15 AM 41.0 °F 35.8 °F 41.0 °F 100% 30.13 in 5.0 mi ESE 8.1 mph - N/A   Clear
8:35 AM 44.6 °F 39.7 °F 41.0 °F 87% 30.12 in 7.0 mi East 9.2 mph - N/A   Clear
8:55 AM 46.4 °F 41.5 °F 39.2 °F 76% 30.12 in 9.0 mi East 10.4 mph - N/A   Clear
9:15 AM 50.0 °F - 37.4 °F 62% 30.12 in 9.0 mi East 11.5 mph 16.1 mph N/A   Clear
9:35 AM 50.0 °F - 37.4 °F 62% 30.12 in 9.0 mi East 13.8 mph 18.4 mph N/A   Clear
9:55 AM 53.6 °F - 32.0 °F 44% 30.13 in 7.0 mi SE 20.7 mph 25.3 mph N/A   Clear
10:15 AM 53.6 °F - 32.0 °F 44% 30.13 in 7.0 mi SE 19.6 mph 28.8 mph N/A   Clear
10:35 AM 55.4 °F - 26.6 °F 33% 30.12 in 5.0 mi SE 20.7 mph 26.5 mph N/A   Haze
10:55 AM 55.4 °F - 26.6 °F 33% 30.12 in 7.0 mi SE 21.9 mph 26.5 mph N/A   Clear
11:15 AM 55.4 °F - 23.0 °F 29% 30.12 in 5.0 mi SE 23.0 mph 31.1 mph N/A   Haze
11:35 AM 57.2 °F - 24.8 °F 29% 30.12 in 8.0 mi ESE 20.7 mph 27.6 mph N/A   Clear
11:55 AM 57.2 °F - 23.0 °F 27% 30.13 in 9.0 mi ESE 18.4 mph 26.5 mph N/A   Clear
12:15 PM 57.2 °F - 23.0 °F 27% 30.12 in 9.0 mi ESE 21.9 mph 27.6 mph N/A   Clear
12:35 PM 55.4 °F - 21.2 °F 26% 30.11 in 9.0 mi ESE 21.9 mph 28.8 mph N/A   Clear
12:55 PM 55.4 °F - 21.2 °F 26% 30.11 in 8.0 mi ESE 18.4 mph 28.8 mph N/A   Clear
1:15 PM 57.2 °F - 23.0 °F 27% 30.11 in 7.0 mi ESE 18.4 mph 28.8 mph N/A   Clear
1:35 PM 57.2 °F - 23.0 °F 27% 30.10 in 8.0 mi ESE 17.3 mph 25.3 mph N/A   Clear
1:55 PM 59.0 °F - 23.0 °F 25% 30.10 in 8.0 mi SE 18.4 mph 26.5 mph N/A   Clear
2:15 PM 57.2 °F - 23.0 °F 27% 30.09 in 9.0 mi SE 20.7 mph 25.3 mph N/A   Clear
2:35 PM 59.0 °F - 23.0 °F 25% 30.09 in 9.0 mi SE 19.6 mph 23.0 mph N/A   Clear
2:55 PM 57.2 °F - 21.2 °F 25% 30.08 in 9.0 mi SE 18.4 mph 24.2 mph N/A   Clear
3:15 PM 57.2 °F - 23.0 °F 27% 30.08 in 9.0 mi ESE 18.4 mph 24.2 mph N/A   Clear
3:35 PM 59.0 °F - 21.2 °F 23% 30.08 in 9.0 mi ESE 17.3 mph 24.2 mph N/A   Clear
3:55 PM 59.0 °F - 21.2 °F 23% 30.08 in 9.0 mi SE 17.3 mph 23.0 mph N/A   Clear
4:15 PM 57.2 °F - 19.4 °F 23% 30.08 in 10.0 mi SE 17.3 mph 21.9 mph N/A   Clear
4:35 PM 59.0 °F - 19.4 °F 22% 30.08 in 10.0 mi ESE 16.1 mph 24.2 mph N/A   Clear
4:55 PM 57.2 °F - 19.4 °F 23% 30.07 in 10.0 mi ESE 18.4 mph 24.2 mph N/A   Clear
5:15 PM 57.2 °F - 19.4 °F 23% 30.07 in 9.0 mi ESE 17.3 mph - N/A   Clear
5:35 PM 55.4 °F - 19.4 °F 25% 30.08 in 10.0 mi ESE 15.0 mph 21.9 mph N/A   Clear
5:55 PM 55.4 °F - 19.4 °F 25% 30.08 in 10.0 mi ESE 15.0 mph 20.7 mph N/A   Clear
6:15 PM 55.4 °F - 19.4 °F 25% 30.08 in 10.0 mi ESE 16.1 mph 20.7 mph N/A   Clear
6:35 PM 55.4 °F - 19.4 °F 25% 30.08 in 10.0 mi ESE 15.0 mph 19.6 mph N/A   Clear
6:55 PM 53.6 °F - 19.4 °F 26% 30.08 in 10.0 mi ESE 17.3 mph 21.9 mph N/A   Clear
7:15 PM 51.8 °F - 19.4 °F 28% 30.09 in 10.0 mi ESE 10.4 mph - N/A   Clear
7:35 PM 50.0 °F - 19.4 °F 30% 30.10 in 10.0 mi ESE 10.4 mph 16.1 mph N/A   Clear
7:55 PM 50.0 °F - 19.4 °F 30% 30.10 in 10.0 mi ESE 11.5 mph - N/A   Clear
8:15 PM 50.0 °F - 17.6 °F 28% 30.10 in 10.0 mi ESE 11.5 mph - N/A   Clear
8:35 PM 50.0 °F - 17.6 °F 28% 30.10 in 10.0 mi ESE 12.7 mph - N/A   Clear
8:55 PM 48.2 °F - 17.6 °F 30% 30.11 in 10.0 mi SE 12.7 mph - N/A   Clear
9:15 PM 48.2 °F - 15.8 °F 27% 30.11 in 10.0 mi ESE 16.1 mph 23.0 mph N/A   Clear
9:35 PM 46.4 °F 40.4 °F 15.8 °F 29% 30.11 in 10.0 mi ESE 13.8 mph - N/A   Clear
9:55 PM 46.4 °F 41.1 °F 15.8 °F 29% 30.11 in 10.0 mi SE 11.5 mph - N/A   Clear
10:15 PM 46.4 °F 40.7 °F 15.8 °F 29% 30.11 in 10.0 mi SE 12.7 mph - N/A   Clear
10:35 PM 46.4 °F 40.7 °F 15.8 °F 29% 30.12 in 10.0 mi SE 12.7 mph - N/A   Clear
10:55 PM 44.6 °F 38.4 °F 15.8 °F 31% 30.12 in 10.0 mi ESE 12.7 mph - N/A   Clear
11:15 PM 46.4 °F 39.0 °F 14.0 °F 27% 30.12 in 10.0 mi SE 19.6 mph 23.0 mph N/A   Clear
11:35 PM 46.4 °F 40.4 °F 15.8 °F 29% 30.12 in 10.0 mi ESE 13.8 mph - N/A   Clear
11:55 PM 46.4 °F 41.9 °F 14.0 °F 27% 30.12 in 10.0 mi ESE 9.2 mph - N/A   Clear